[[{"header":{"parameterUnit":"m.s-1","parameterCategory":1,"la1":30.2991,"la2":30.254,"lo1":-89.0895,"lo2":-89.0444,"dy":0.0017,"dx":0.0017,"nx":28,"ny":28,"refTime":"2025-03-08T09:00:00:Z","depth":0,"parameterNumber":2,"parameterNumberName":"U-component_of_WINDS"},"data":[0,0,0,0,0,0,0,0,0,0,0,0,0,0,0,0,0,0,0,0,0,0,0,0,0,0,0,0,0,0,0,0,0,0,0,0,0,0,0,0,0,0,0,0,0,0,0,0,0,0,0,0,0,0,0,0,0,0,-0.2447,-0.2447,0,-0.2458,-0.2458,-0.2458,-0.2451,-0.2451,-0.2451,-0.245,-0.2463,-0.2464,-0.2464,0,0,0,0,0,0,0,0,0,0,0,0,0,-0.2422,-0.2422,-0.2447,-0.2447,-0.2447,-0.2458,-0.2458,-0.2458,-0.2451,-0.2451,-0.2451,-0.245,-0.2463,-0.2463,-0.2464,0,0,0,0,0,0,0,0,0,0,0,0,0,-0.2433,-0.2422,-0.2447,-0.2445,-0.2445,-0.2458,-0.2458,-0.2458,-0.2452,-0.2451,-0.2451,-0.245,-0.2462,-0.2463,-0.2464,-0.248,0,0,-0.2467,-0.2468,0,0,0,0,0,0,0,0,-0.2432,-0.2434,-0.2445,-0.2445,-0.2445,-0.2453,-0.2454,-0.2466,-0.2452,-0.2449,-0.245,-0.245,-0.246,-0.2461,-0.2464,-0.248,-0.2481,-0.2467,-0.2468,-0.2468,-0.2469,0,0,0,0,0,0,0,-0.2431,-0.2433,-0.2451,-0.2446,-0.2445,-0.2444,-0.2445,-0.2456,-0.2457,-0.2449,-0.2449,-0.245,-0.246,-0.2463,-0.2465,-0.2481,-0.2467,-0.2468,-0.2469,-0.2469,-0.2511,-0.2511,0,0,0,0,0,0,-0.243,-0.2432,-0.2451,-0.2452,-0.2437,-0.2445,-0.2446,-0.2451,-0.2457,-0.2458,-0.2451,-0.245,-0.2462,-0.2463,-0.2465,-0.2483,-0.2468,-0.2469,-0.247,-0.251,-0.2511,-0.2511,0,0,0,0,0,0,-0.243,-0.2432,-0.2451,-0.2442,-0.2444,-0.2446,-0.2451,-0.2451,-0.2455,-0.2458,-0.2458,-0.2454,-0.2462,-0.2464,-0.2476,-0.2484,-0.247,-0.247,-0.251,-0.251,-0.2511,-0.2521,0,0,0,0,0,0,-0.2429,-0.2432,-0.2438,-0.2442,-0.2445,-0.2461,-0.2452,-0.2452,-0.2456,-0.2455,-0.2461,-0.2462,-0.2461,-0.2475,-0.2477,-0.2485,-0.2471,-0.2509,-0.251,-0.2511,-0.252,-0.2522,-0.2523,0,0,0,0,0,-0.2428,-0.244,-0.2438,-0.244,-0.2452,-0.2462,-0.2463,-0.2462,-0.2457,-0.2463,-0.2465,-0.2461,-0.2483,-0.2476,-0.2479,-0.2487,-0.2508,-0.251,-0.2511,-0.2519,-0.2521,-0.2523,0,0,0,0,0,0,-0.2437,-0.2441,-0.2438,-0.2452,-0.2456,-0.246,-0.2468,-0.2465,-0.2472,-0.2471,-0.247,-0.2471,-0.2484,-0.2487,-0.2479,-0.2502,-0.2495,-0.2496,-0.25,-0.2502,-0.2504,-0.2503,-0.2472,0,0,0,0,0,-0.2441,-0.2448,-0.2451,-0.2463,-0.2465,-0.2466,-0.247,-0.2469,-0.2474,-0.2476,-0.2479,-0.2484,-0.2492,-0.2497,-0.2505,-0.252,-0.2521,-0.2527,-0.2529,-0.253,-0.2532,-0.254,-0.2543,-0.2515,-0.2515,-0.2515,0,0,-0.2448,-0.2451,-0.2456,-0.2464,-0.2468,-0.2476,-0.2468,-0.2477,-0.2483,-0.2478,-0.2489,-0.2492,-0.2498,-0.2512,-0.2518,-0.2514,-0.254,-0.2532,-0.2533,-0.2534,-0.2542,-0.2544,-0.2546,-0.2516,-0.2516,-0.2516,0,0,-0.2465,-0.2468,-0.2478,-0.2482,-0.2487,-0.2487,-0.249,-0.2494,-0.2495,-0.2507,-0.2504,-0.2511,-0.2525,-0.2529,-0.2533,-0.2552,-0.2549,-0.2554,-0.2564,-0.2572,-0.2574,-0.2576,-0.2582,-0.2585,-0.2556,-0.2556,-0.2556,0,-0.2474,-0.2485,-0.2484,-0.2493,-0.2497,-0.2492,-0.2503,-0.2506,-0.2514,-0.2517,-0.2513,-0.2529,-0.2533,-0.2548,-0.2552,-0.2556,-0.2558,-0.2553,-0.2574,-0.2576,-0.2577,-0.2584,-0.2586,-0.2556,-0.2556,-0.2556,-0.2556,0,-0.2496,-0.2504,-0.2511,-0.2518,-0.2523,-0.2532,-0.2533,-0.2538,-0.2537,-0.2538,-0.255,-0.2554,-0.2562,-0.2566,-0.2565,-0.258,-0.2578,-0.2574,-0.2566,-0.258,-0.2586,-0.2589,-0.2557,-0.2557,-0.2557,-0.2557,0,0,-0.2519,-0.2524,-0.2527,-0.253,-0.2535,-0.2542,-0.2551,-0.2559,-0.2563,-0.2569,-0.2577,-0.2588,-0.2584,-0.2589,-0.2588,-0.2595,-0.261,-0.259,-0.259,-0.2593,-0.2627,-0.263,-0.2633,-0.2608,-0.2608,-0.2609,-0.2626,0,-0.2536,-0.2552,-0.2551,-0.2567,-0.2574,-0.257,-0.2578,-0.2582,-0.2584,-0.2591,-0.2592,-0.26,-0.2595,-0.2597,-0.2604,-0.2606,-0.2616,-0.2605,-0.2615,-0.2616,-0.2614,-0.2636,-0.2639,-0.2656,-0.2629,-0.2629,-0.2629,0,-0.2559,-0.2564,-0.258,-0.2584,-0.2587,-0.2595,-0.2601,-0.2608,-0.2613,-0.2613,-0.2618,-0.2616,-0.2626,-0.2619,-0.2632,-0.2625,-0.2629,-0.2631,-0.2631,-0.2632,-0.2623,-0.2637,-0.2661,-0.2663,-0.2633,-0.2633,-0.2633,0,-0.2574,-0.2586,-0.2597,-0.2599,-0.2604,-0.2609,-0.2612,-0.2616,-0.2621,-0.2627,-0.2629,-0.2637,-0.2641,-0.2647,-0.2647,-0.2641,-0.2661,-0.2653,-0.2662,-0.2662,-0.2666,-0.2666,-0.2691,-0.2669,-0.2669,-0.2669,-0.2669,0,-0.2594,-0.2604,-0.2603,-0.261,-0.2621,-0.262,-0.2631,-0.2633,-0.2637,-0.2644,-0.2641,-0.2648,-0.2648,-0.2655,-0.2656,-0.2667,-0.2669,-0.267,-0.267,-0.267,-0.267,-0.2672,-0.2671,-0.267,-0.2669,-0.2669,-0.2669,0,-0.2613,-0.2613,-0.2624,-0.2628,-0.2629,-0.2637,-0.264,-0.2647,-0.2648,-0.2657,-0.2659,-0.2661,-0.2669,-0.267,-0.268,-0.268,-0.2694,-0.2692,-0.2692,-0.2691,-0.27,-0.2699,-0.2728,-0.2731,-0.2707,-0.2707,-0.2708,0,-0.2625,-0.2633,-0.2637,-0.2641,-0.2644,-0.2651,-0.2655,-0.2654,-0.2659,-0.2665,-0.2671,-0.2679,-0.2685,-0.2699,-0.2701,-0.2708,-0.2707,-0.2717,-0.2709,-0.2708,-0.2707,-0.2707,-0.2708,-0.2718,-0.2719,-0.2719,-0.2719,0,-0.2647,-0.2647,-0.2653,-0.2659,-0.2664,-0.2669,-0.2674,-0.2678,-0.2678,-0.2683,-0.2691,-0.2696,-0.2706,-0.2714,-0.2721,-0.2724,-0.2722,-0.2722,-0.2724,-0.2724,-0.2723,-0.2724,-0.2696,-0.2721,-0.2721,-0.2721,-0.2721,-0.272,-0.2664,-0.267,-0.2673,-0.268,-0.2684,-0.2688,-0.2694,-0.2696,-0.2702,-0.271,-0.2709,-0.2718,-0.2723,-0.2732,-0.2736,-0.2743,-0.274,-0.2743,-0.2744,-0.2745,-0.2746,-0.2722,-0.2744,-0.2744,-0.2744,-0.2744,-0.2744,0,-0.2685,-0.2687,-0.2694,-0.27,-0.2705,-0.2702,-0.2707,-0.2712,-0.272,-0.2724,-0.273,-0.2739,-0.2747,-0.275,-0.2757,-0.2763,-0.2762,-0.2765,-0.2764,-0.2765,-0.2748,-0.2745,-0.2765,-0.2765,-0.2765,-0.2765,-0.2765,-0.2765,-0.2697,-0.2708,-0.2708,-0.272,-0.2722,-0.273,-0.2733,-0.2737,-0.2741,-0.2751,-0.2757,-0.2759,-0.2762,-0.277,-0.2777,-0.2778,-0.2781,-0.2784,-0.2784,-0.2768,-0.2766,-0.2764,-0.2761,-0.2785,-0.2785,-0.2801,-0.2801,-0.2801]},{"header":{"parameterUnit":"m.s-1","parameterCategory":1,"la1":30.2991,"la2":30.254,"lo1":-89.0895,"lo2":-89.0444,"dy":0.0017,"dx":0.0017,"nx":28,"ny":28,"refTime":"2025-03-08T09:00:00:Z","depth":0,"parameterNumber":3,"parameterNumberName":"V-component_of_WINDS"},"data":[0,0,0,0,0,0,0,0,0,0,0,0,0,0,0,0,0,0,0,0,0,0,0,0,0,0,0,0,0,0,0,0,0,0,0,0,0,0,0,0,0,0,0,0,0,0,0,0,0,0,0,0,0,0,0,0,0,0,2.1755,2.1756,0,2.1803,2.1803,2.1804,2.1788,2.1787,2.1786,2.1785,2.1834,2.1836,2.1838,0,0,0,0,0,0,0,0,0,0,0,0,0,2.1652,2.1654,2.1755,2.1756,2.1756,2.1802,2.1803,2.1804,2.1788,2.1787,2.1785,2.1784,2.1833,2.1836,2.1838,0,0,0,0,0,0,0,0,0,0,0,0,0,2.1698,2.1655,2.1755,2.1754,2.1754,2.1802,2.1803,2.1804,2.1788,2.1786,2.1785,2.1783,2.1832,2.1835,2.1839,2.1891,0,0,2.1849,2.1851,0,0,0,0,0,0,0,0,2.1695,2.1702,2.1753,2.1754,2.1755,2.1788,2.1785,2.1833,2.1788,2.1775,2.1785,2.1783,2.182,2.1824,2.1836,2.1893,2.1895,2.185,2.1852,2.1853,2.1854,0,0,0,0,0,0,0,2.1692,2.17,2.1774,2.1754,2.1755,2.1751,2.1756,2.1794,2.1806,2.1776,2.1775,2.1781,2.182,2.1833,2.1837,2.1896,2.1849,2.1852,2.1855,2.1856,2.2001,2.2002,0,0,0,0,0,0,2.1689,2.1697,2.1772,2.1775,2.172,2.1755,2.176,2.1779,2.1805,2.1808,2.1782,2.178,2.1828,2.1833,2.1839,2.1904,2.1853,2.1856,2.1858,2.1999,2.2001,2.2003,0,0,0,0,0,0,2.1686,2.1695,2.177,2.1736,2.1745,2.1758,2.1779,2.178,2.1794,2.181,2.1812,2.1794,2.1827,2.1834,2.1879,2.1905,2.1858,2.1861,2.1997,2.2,2.2002,2.2033,0,0,0,0,0,0,2.1684,2.1695,2.1714,2.1736,2.1747,2.1809,2.1781,2.1782,2.18,2.1797,2.1821,2.1824,2.1826,2.1874,2.1882,2.1909,2.1864,2.1994,2.1998,2.2001,2.2029,2.2036,2.2042,0,0,0,0,0,2.168,2.1721,2.1715,2.1725,2.1772,2.1811,2.1817,2.1819,2.1802,2.1822,2.1833,2.1823,2.1901,2.1878,2.1888,2.1916,2.1993,2.1997,2.2001,2.2027,2.2035,2.2042,0,0,0,0,0,0,2.1701,2.1724,2.1718,2.1767,2.1787,2.1808,2.1833,2.1827,2.1852,2.1849,2.1851,2.1857,2.1903,2.1913,2.1888,2.1969,2.1944,2.195,2.1961,2.1969,2.1975,2.1972,2.1866,0,0,0,0,0,2.1712,2.1741,2.1759,2.1801,2.1811,2.1821,2.1837,2.1837,2.1858,2.1867,2.188,2.1901,2.1931,2.195,2.1977,2.203,2.2037,2.2055,2.2061,2.2066,2.2072,2.2103,2.2112,2.2016,2.2016,2.2016,0,0,2.1734,2.175,2.1768,2.1805,2.1821,2.1852,2.1828,2.1861,2.1885,2.1872,2.1915,2.1926,2.1949,2.1999,2.2021,2.2009,2.2099,2.2071,2.2075,2.2078,2.2108,2.2117,2.2125,2.2019,2.2018,2.2018,0,0,2.179,2.1804,2.1842,2.1858,2.1882,2.1888,2.1897,2.1919,2.1926,2.1969,2.1961,2.1988,2.2038,2.2056,2.2071,2.2136,2.2129,2.2144,2.2178,2.2208,2.2215,2.2222,2.2247,2.2256,2.215,2.215,2.215,0,2.1815,2.1861,2.1862,2.1897,2.1914,2.1904,2.1942,2.1958,2.199,2.2002,2.1988,2.2052,2.2066,2.2121,2.2137,2.2149,2.2161,2.2143,2.2214,2.2221,2.2227,2.2251,2.226,2.2152,2.2152,2.2151,2.2151,0,2.1891,2.1923,2.1951,2.1982,2.2002,2.2039,2.2046,2.2066,2.2064,2.2072,2.2118,2.2135,2.2167,2.218,2.2178,2.2235,2.2227,2.2213,2.2189,2.2238,2.2261,2.227,2.2155,2.2154,2.2153,2.2153,0,0,2.1963,2.1995,2.2005,2.202,2.2046,2.2071,2.2107,2.2139,2.2158,2.2179,2.2211,2.2254,2.2242,2.226,2.226,2.2286,2.2339,2.227,2.2271,2.2284,2.2405,2.2417,2.2427,2.2333,2.2335,2.2337,2.2404,0,2.2023,2.2088,2.209,2.2149,2.2179,2.217,2.2202,2.2222,2.223,2.2258,2.2267,2.2299,2.2279,2.2291,2.2316,2.2327,2.2364,2.2322,2.2365,2.2366,2.2362,2.2439,2.2451,2.2514,2.2412,2.2414,2.2415,0,2.2102,2.2128,2.219,2.2213,2.2226,2.2255,2.2285,2.2311,2.2333,2.2338,2.2358,2.2355,2.2393,2.2366,2.242,2.2391,2.2409,2.2417,2.242,2.2425,2.2395,2.2449,2.2533,2.2544,2.2429,2.2427,2.2426,0,2.2152,2.2201,2.2245,2.2258,2.2285,2.2306,2.2318,2.2339,2.2359,2.2385,2.2398,2.2427,2.2444,2.2468,2.2473,2.2453,2.2528,2.2501,2.2534,2.2534,2.2552,2.2552,2.2643,2.256,2.2559,2.2559,2.2559,0,2.222,2.2259,2.2268,2.2296,2.234,2.2341,2.2385,2.2396,2.2415,2.2445,2.2438,2.2466,2.2471,2.2501,2.2505,2.255,2.2557,2.2563,2.2564,2.2565,2.2565,2.2578,2.2575,2.2562,2.2561,2.2561,2.256,0,2.2283,2.2291,2.2339,2.2361,2.2367,2.2399,2.2418,2.2445,2.2452,2.2491,2.25,2.2512,2.2547,2.2554,2.2595,2.2598,2.2653,2.2648,2.2645,2.2646,2.268,2.2678,2.2785,2.2801,2.2705,2.2706,2.2706,0,2.2328,2.2358,2.2383,2.2403,2.2416,2.2448,2.2468,2.2471,2.2492,2.2521,2.2545,2.2579,2.2606,2.2663,2.2676,2.2708,2.2705,2.2741,2.271,2.2711,2.2709,2.2708,2.2712,2.2747,2.2748,2.2749,2.275,0,2.2406,2.2409,2.2437,2.2468,2.2492,2.2516,2.2539,2.2556,2.2562,2.2587,2.2622,2.2644,2.2686,2.2721,2.2753,2.2766,2.2761,2.2759,2.2769,2.2772,2.277,2.2774,2.2664,2.2757,2.2757,2.2756,2.2756,2.2755,2.2463,2.249,2.2513,2.2546,2.2563,2.2585,2.2612,2.2624,2.2653,2.2688,2.2688,2.2728,2.2751,2.2793,2.2809,2.2841,2.283,2.2843,2.2847,2.2851,2.2856,2.2763,2.2846,2.2846,2.2846,2.2845,2.2845,0,2.2543,2.2558,2.2588,2.2621,2.2647,2.2638,2.2663,2.2686,2.2721,2.2743,2.2771,2.2813,2.2847,2.2862,2.2896,2.2919,2.2917,2.2928,2.2927,2.2931,2.2862,2.2852,2.2929,2.2929,2.2929,2.2929,2.2929,2.2929,2.2589,2.2635,2.264,2.2695,2.2709,2.2748,2.2764,2.2785,2.2802,2.285,2.2878,2.2888,2.2908,2.2943,2.2974,2.2978,2.2992,2.3005,2.3008,2.2944,2.2935,2.2928,2.2918,2.3007,2.3007,2.3074,2.3075,2.3075]}]]